Flag for Germany Weather past 2 weeks in Munich, Bavaria, Germany

Now
59 °F

Partly sunny.


Feels Like: 56 °F
Forecast: 36 / 44 °F
Wind: 15 mph from West

Location: Oberpfaffenhofen

Current Time: Oct 21, 2014 at 1:23:12 PM

Latest Report: Oct 21, 2014 at 12:50 PM


Visibility: N/A

Pressure: 29.92 "Hg

Humidity: 82%

Dew point: 54 °F

Location of MunichLocation

Historic Weather in Munich — Graph

°F

Munich temperature yesterday

Maximum temperature yesterday: 70 °F (at 1:50 PM)
Minimum temperature yesterday: 54 °F (at 6:50 AM)
Average temperature yesterday: 63 °F

Past Weeks' High & Low Weather Summary

 TemperatureHumidityPressure
High75 °F (Oct 9, 1:20 PM)100% (Oct 7, 6:50 AM)30.27 "Hg (Oct 7, 6:50 AM)
Low46 °F (Oct 7, 6:50 AM)36% (Oct 9, 2:20 PM)29.77 "Hg (Oct 17, 6:50 AM)
Average60 °F76%29.93 "Hg
* Reported Oct 6 12:20 PM — Oct 21 12:20 PM, Munich, Weather by CustomWeather, © 2014

Note: Actual official high and low records may vary slightly from our data, if they occured in-between our weather recording intervals... More about our weather records

Advertising

Munich weather history for previous 24 hours

 ConditionsComfort  
Time TempWeatherWind HumidityBarometerVisibility
12:20 PM
Oct 21
59 °FPartly sunny.10 mph82%29.92 "HgN/A
11:50 AM57 °FBroken clouds.10 mph88%29.95 "HgN/A
11:20 AM55 °FSprinkles. Partly sunny.7 mph94%29.95 "HgN/A
10:50 AM55 °FPartly sunny.6 mph88%29.95 "HgN/A
10:20 AM54 °FRain showers. Partly sunny.5 mph88%29.95 "HgN/A
9:50 AM54 °FLots of rain. Partly sunny.6 mph88%29.95 "HgN/A
9:20 AM52 °FSprinkles. Partly sunny.5 mph94%29.95 "HgN/A
8:50 AM52 °FLight rain. Partly sunny.3 mph94%29.98 "Hg4 mi
8:20 AM52 °FLight rain. Passing clouds.5 mph94%29.95 "HgN/A
7:50 AM52 °FPassing clouds.5 mph94%29.95 "HgN/A
7:20 AM52 °FSprinkles. Passing clouds.5 mph94%29.98 "HgN/A
6:50 AM52 °FSprinkles. Passing clouds.3 mph94%29.98 "HgN/A
6:20 AM52 °FSprinkles. Passing clouds.3 mph94%29.98 "HgN/A
7:50 PM
Oct 20
61 °FMostly cloudy.7 mph83%30.07 "HgN/A
7:20 PM63 °FMostly cloudy.9 mph77%30.07 "HgN/A
6:50 PM63 °FSunny.5 mph77%30.04 "Hg10 mi
6:20 PM63 °FLight rain. Broken clouds.7 mph77%30.04 "HgN/A
5:50 PM64 °FSunny.8 mph73%30.04 "Hg10 mi
5:20 PM66 °FSunny.8 mph68%30.07 "Hg10 mi
4:50 PM66 °FSunny.10 mph64%30.07 "Hg10 mi
4:20 PM68 °FSunny.9 mph60%30.07 "Hg10 mi
3:50 PM68 °FSunny.12 mph60%30.07 "Hg10 mi
3:20 PM68 °FSunny.13 mph60%30.09 "Hg10 mi
2:50 PM70 °FSunny.12 mph57%30.09 "Hg10 mi
2:20 PM70 °FSunny.14 mph60%30.09 "Hg10 mi
1:50 PM70 °FPassing clouds.12 mph60%30.09 "HgN/A
1:20 PM68 °FSunny.15 mph60%30.12 "Hg10 mi
Weather by CustomWeather, © 2014

See weather overviewHow to use our weather pages